PBO Station Position Time Series. Reference Frame : NAM14
Format Version,1.1.1
4-character ID,P643
Station name,Toms_PlaceCS2006
Begin Date, 2006-11-13
End Date, 2023-06-26
Release Date, 2023-06-27
Reference position, 37.5615528805 North Latitude, -118.6981624162 East Longitude, 2121.98970 meters elevation,
Date, North (mm), East (mm), Vertical (mm), North Std. Deviation (mm), East Std. Deviation (mm),              Vertical Std. Deviation (mm), Quality,
2006-11-13,0.00, 0.00, 0.00, 2.11, 1.73, 7.82, repro,
2006-11-14,-2.50, -5.86, -0.00, 2.14, 1.82, 8.02, repro,
2006-11-15,0.42, -2.53, -8.58, 1.98, 1.64, 7.39, repro,
2006-11-16,2.88, -3.84, -4.45, 1.99, 1.64, 7.41, repro,
2006-11-17,1.28, -0.60, -7.64, 1.99, 1.63, 7.37, repro,
2006-11-18,-0.04, -1.81, -6.54, 1.99, 1.64, 7.41, repro,
2006-11-19,-0.13, -2.71, -14.92, 1.99, 1.64, 7.38, repro,
2006-11-20,0.47, -0.00, -13.22, 2.00, 1.67, 7.44, repro,
2006-11-21,-5.45, -4.50, -18.79, 1.98, 1.64, 7.38, repro,
2006-11-22,-4.57, -3.83, -7.48, 2.00, 1.64, 7.41, repro,
2006-11-23,-6.61, -5.04, -21.77, 2.03, 1.69, 7.62, repro,
2006-11-24,0.24, -3.21, -8.62, 2.08, 1.71, 7.70, repro,
2006-11-25,-0.81, -2.69, -10.77, 2.08, 1.69, 7.59, repro,
2006-11-26,0.11, -2.03, -9.89, 2.08, 1.69, 7.56, repro,
2006-11-27,1.25, -2.83, 1.79, 2.03, 1.66, 7.48, repro,
2006-11-28,-0.29, -4.39, -4.52, 2.04, 1.67, 7.63, repro,
2006-11-29,-1.37, -2.45, -6.37, 1.99, 1.64, 7.36, repro,
2006-11-30,-0.58, -1.99, -14.23, 1.99, 1.65, 7.36, repro,
2006-12-01,-0.38, -1.86, -18.97, 1.98, 1.65, 7.36, repro,
2006-12-02,-0.53, -2.72, -14.09, 2.00, 1.65, 7.40, repro,
2006-12-03,-0.01, -2.56, -15.19, 2.00, 1.66, 7.40, repro,
2006-12-04,-0.83, -2.35, -19.72, 2.09, 1.69, 7.58, repro,
2006-12-05,-0.07, -2.36, -16.55, 2.07, 1.79, 7.73, repro,
2006-12-06,-0.53, -2.23, -17.20, 2.08, 1.80, 7.80, repro,
2006-12-07,-1.19, -2.38, -14.17, 2.02, 1.72, 7.57, repro,
2006-12-09,-0.71, -0.73, -6.20, 2.10, 1.77, 7.96, repro,
2006-12-10,-3.25, -5.49, -14.54, 2.11, 1.77, 7.80, repro,
2006-12-11,-0.66, -3.61, -14.93, 1.99, 1.67, 7.44, repro,
2006-12-12,1.00, -1.90, -16.84, 2.12, 1.75, 7.91, repro,
2006-12-13,0.20, -3.53, -14.21, 2.01, 1.72, 7.58, repro,
2006-12-14,0.14, -3.40, -10.51, 1.97, 1.68, 7.46, repro,
2006-12-15,-6.20, -7.06, -18.28, 2.09, 1.79, 7.96, repro,
2006-12-16,-2.07, -5.86, -10.03, 2.06, 1.75, 7.70, repro,
2006-12-17,-1.41, -2.52, -12.73, 2.19, 1.96, 8.54, repro,
2006-12-18,-0.39, -3.34, -16.47, 2.28, 1.93, 8.80, repro,
2006-12-19,0.55, -2.80, -11.25, 2.12, 1.90, 8.21, repro,
2006-12-20,-1.03, -3.00, -11.61, 2.17, 1.91, 8.21, repro,
2006-12-21,-0.17, -3.37, -16.64, 2.01, 1.80, 7.69, repro,
2006-12-22,-1.65, -3.55, -15.48, 2.19, 1.99, 8.47, repro,
2006-12-23,0.89, -3.00, -12.58, 2.06, 1.75, 7.85, repro,
2006-12-24,0.50, -3.21, -15.69, 1.98, 1.67, 7.44, repro,
2006-12-25,-0.72, -2.64, -20.86, 2.05, 1.81, 7.73, repro,
2006-12-26,-8.48, -2.38, -0.52, 2.08, 1.77, 7.89, repro,
2006-12-27,-6.61, -5.43, -29.31, 2.15, 1.84, 8.27, repro,
2006-12-28,-0.29, -1.67, -10.63, 2.29, 2.07, 8.84, repro,
2006-12-29,-0.97, -3.15, -15.86, 2.22, 1.95, 8.53, repro,
2006-12-30,0.05, -3.65, -15.97, 2.11, 1.81, 7.94, repro,
2006-12-31,-0.31, -2.00, -17.44, 2.19, 1.86, 8.27, repro,
2007-01-01,-1.93, -3.59, -22.53, 2.25, 1.99, 8.71, repro,
2007-01-02,0.21, -3.04, -14.33, 2.23, 2.02, 8.66, repro,
2007-01-03,1.08, -4.53, -12.47, 2.00, 1.74, 7.69, repro,
2007-01-04,-2.98, -3.31, -16.32, 1.99, 1.71, 7.57, repro,
2007-01-05,0.47, -3.13, -19.30, 1.99, 1.75, 7.58, repro,
2007-01-06,-0.49, -3.13, -17.35, 2.01, 1.74, 7.61, repro,
2007-01-07,0.81, -1.88, -21.61, 2.02, 1.69, 7.50, repro,
2007-01-08,0.24, -3.86, -18.68, 2.07, 1.74, 7.70, repro,
2007-01-09,0.12, -3.21, -19.08, 2.03, 1.70, 7.44, repro,
2007-01-10,-1.37, -3.43, -11.72, 2.06, 1.73, 7.53, repro,
2007-01-11,-8.14, -7.55, -17.31, 2.10, 1.71, 7.64, repro,
2007-01-12,0.15, -3.71, -14.61, 1.98, 1.62, 7.28, repro,
2007-01-13,0.06, -3.01, -23.13, 1.95, 1.61, 7.15, repro,
2007-01-14,-0.06, -3.64, -19.18, 1.94, 1.62, 7.14, repro,
2007-01-15,0.10, -3.21, -24.17, 1.96, 1.63, 7.25, repro,
2007-01-16,-0.65, -3.15, -22.24, 1.99, 1.63, 7.25, repro,
2007-01-17,0.17, -4.00, -16.15, 1.99, 1.68, 7.39, repro,
2007-01-18,0.12, -3.54, -25.29, 2.03, 1.73, 7.56, repro,
2007-01-19,1.07, -2.97, -21.44, 2.04, 1.64, 7.45, repro,
2007-01-20,0.50, -3.53, -20.18, 2.06, 1.72, 7.78, repro,
2007-01-21,0.97, -3.05, -16.74, 1.96, 1.63, 7.16, repro,
2007-01-22,0.46, -3.03, -17.60, 1.99, 1.67, 7.34, repro,
2007-01-23,-0.68, -2.92, -23.84, 2.00, 1.64, 7.24, repro,
2007-01-24,-0.84, -3.04, -23.00, 1.96, 1.62, 7.15, repro,
2007-01-25,0.34, -3.21, -26.57, 2.07, 1.66, 7.33, repro,
2007-01-26,-0.76, -3.83, -18.00, 1.95, 1.60, 7.03, repro,
2007-01-27,-0.84, -3.10, -15.92, 1.96, 1.62, 7.13, repro,
2007-01-28,-1.73, -1.73, -27.21, 1.96, 1.62, 7.13, repro,
2007-01-29,1.02, -3.59, -29.62, 1.96, 1.61, 7.10, repro,
2007-01-30,-1.13, -3.03, -18.56, 1.97, 1.61, 7.14, repro,
2007-01-31,-1.18, -3.21, -14.84, 1.95, 1.61, 7.06, repro,
2007-02-01,-0.83, -1.70, -13.92, 1.97, 1.66, 7.26, repro,
2007-02-02,-1.80, -2.93, -14.43, 1.99, 1.64, 7.31, repro,
2007-02-03,-0.36, -3.58, -14.36, 2.00, 1.64, 7.31, repro,
2007-02-04,-0.59, -2.84, -19.06, 1.95, 1.61, 7.10, repro,
2007-02-05,-0.15, -2.89, -21.74, 1.95, 1.61, 7.06, repro,
2007-02-06,-1.13, -1.90, -21.51, 1.98, 1.63, 7.19, repro,
2007-02-07,-1.31, -3.10, -20.58, 1.97, 1.67, 7.31, repro,
2007-02-08,1.12, -3.17, -19.93, 2.04, 1.69, 7.41, repro,
2007-02-09,1.07, -2.36, -9.60, 1.98, 1.68, 7.34, repro,
2007-02-10,-4.54, -5.59, -22.05, 1.95, 1.61, 7.10, repro,
2007-02-11,-3.21, -3.54, -12.70, 1.96, 1.62, 7.14, repro,
2007-02-12,-0.27, -1.94, -17.02, 1.95, 1.64, 7.16, repro,
2007-02-13,-0.35, -3.36, -16.68, 1.95, 1.63, 7.13, repro,
2007-02-14,-0.21, -3.20, -17.84, 1.96, 1.62, 7.12, repro,
2007-02-15,0.41, -2.37, -22.10, 1.94, 1.62, 7.12, repro,
2007-02-16,-0.19, -2.81, -16.93, 1.97, 1.62, 7.17, repro,
2007-02-17,-0.57, -2.19, -16.11, 1.99, 1.68, 7.27, repro,
2007-02-18,-0.50, -2.05, -11.37, 1.96, 1.63, 7.18, repro,
2007-02-19,-1.50, -3.69, -9.73, 1.96, 1.61, 7.14, repro,
2007-02-20,-0.00, -3.49, -7.17, 1.99, 1.67, 7.30, repro,
2007-02-21,-2.87, -3.73, -9.43, 1.96, 1.61, 7.16, repro,
2007-02-22,-3.46, -6.64, -13.54, 1.98, 1.63, 7.24, repro,
2007-02-23,-2.13, -3.63, -10.47, 2.21, 1.78, 7.96, repro,
2007-02-24,-1.00, -3.71, -17.33, 1.97, 1.61, 7.22, repro,
2007-02-25,-15.55, -8.66, -23.86, 1.98, 1.63, 7.23, repro,
2007-02-26,-6.15, -6.86, -10.48, 1.96, 1.62, 7.17, repro,
2007-02-27,-3.87, -5.86, -23.69, 1.97, 1.62, 7.20, repro,
2007-02-28,-0.94, -3.80, -3.40, 1.97, 1.63, 7.22, repro,
2007-03-01,-1.32, -3.15, -9.23, 2.06, 1.71, 7.59, repro,
2007-03-02,-0.07, -4.46, -12.58, 2.02, 1.69, 7.43, repro,
2007-03-03,-0.30, -3.83, -17.51, 1.98, 1.65, 7.29, repro,
2007-03-04,-1.15, -3.65, -21.60, 1.99, 1.65, 7.32, repro,
2007-03-05,0.27, -2.37, -11.16, 1.99, 1.65, 7.29, repro,
2007-03-06,-1.70, -3.60, -12.85, 1.98, 1.64, 7.25, repro,
2007-03-07,0.79, -5.26, -5.68, 2.00, 1.66, 7.32, repro,
2007-03-08,-2.45, -4.22, -4.74, 1.98, 1.65, 7.30, repro,
2007-03-09,-0.88, -3.62, -10.41, 1.99, 1.65, 7.30, repro,
2007-03-10,-1.46, -4.09, -13.26, 2.06, 1.70, 7.59, repro,
2007-03-11,-1.53, -4.40, -14.05, 2.02, 1.65, 7.37, repro,
2007-03-12,-1.35, -4.11, -17.64, 1.99, 1.66, 7.39, repro,
2007-03-13,-0.96, -4.29, -8.47, 1.97, 1.62, 7.21, repro,
2007-03-14,-0.57, -4.56, -9.29, 1.95, 1.62, 7.16, repro,
2007-03-15,-0.77, -3.45, -17.28, 2.03, 1.69, 7.45, repro,
2007-03-16,-1.28, -3.97, -16.07, 2.01, 1.65, 7.33, repro,
2007-03-17,-1.07, -4.07, -11.27, 2.00, 1.66, 7.43, repro,
2007-03-18,-1.88, -4.06, -8.12, 1.96, 1.61, 7.15, repro,
2007-03-19,-1.87, -4.09, -13.76, 1.96, 1.61, 7.19, repro,
2007-03-20,0.33, -4.26, -7.46, 2.05, 1.64, 7.38, repro,
2007-03-21,-1.21, -4.89, -2.88, 2.08, 1.66, 7.48, repro,
2007-03-22,-1.44, -4.68, -9.48, 2.02, 1.65, 7.43, repro,
2007-03-23,-0.48, -5.38, -6.26, 1.99, 1.61, 7.23, repro,
2007-03-24,-0.89, -5.03, -6.75, 2.02, 1.65, 7.43, repro,
2007-03-25,-2.06, -3.81, -8.61, 2.00, 1.62, 7.26, repro,
2007-03-26,-3.08, -7.53, -15.47, 1.99, 1.61, 7.22, repro,
2007-03-27,-2.57, -7.73, -11.42, 2.04, 1.62, 7.32, repro,
2007-03-28,0.38, -4.64, -9.09, 2.04, 1.65, 7.43, repro,
2007-03-29,-0.79, -4.32, -13.76, 2.01, 1.65, 7.39, repro,
2007-03-30,-1.64, -3.87, -16.32, 1.99, 1.61, 7.21, repro,
2007-03-31,-1.12, -4.77, -8.01, 2.01, 1.61, 7.22, repro,
2007-04-01,-1.11, -5.65, -8.82, 1.97, 1.60, 7.15, repro,
2007-04-02,-1.40, -3.76, -2.51, 1.99, 1.61, 7.15, repro,
2007-04-03,-1.87, -3.42, -13.75, 2.00, 1.65, 7.31, repro,
2007-04-04,-1.34, -4.98, -12.71, 2.03, 1.65, 7.41, repro,
2007-04-05,-2.66, -5.47, -13.96, 2.05, 1.68, 7.46, repro,
2007-04-06,-2.23, -4.47, -20.47, 2.03, 1.67, 7.43, repro,
2007-04-07,-0.38, -4.83, -8.15, 2.02, 1.64, 7.26, repro,
2007-04-08,-1.91, -4.34, -6.23, 1.98, 1.60, 7.10, repro,
2007-04-09,-1.52, -5.62, -9.31, 1.99, 1.61, 7.18, repro,
2007-04-10,-1.47, -4.61, -6.78, 2.03, 1.65, 7.35, repro,
2007-04-11,-0.42, -5.56, 2.99, 1.99, 1.61, 7.20, repro,
2007-04-12,-0.66, -3.44, -4.49, 2.00, 1.60, 7.19, repro,
2007-04-13,-0.88, -4.26, -10.60, 1.99, 1.60, 7.16, repro,
2007-04-14,-1.71, -5.38, -11.54, 2.02, 1.62, 7.25, repro,
2007-04-15,-3.19, -4.91, -12.24, 2.01, 1.61, 7.22, repro,
2007-04-16,-2.40, -4.91, -9.79, 1.99, 1.61, 7.19, repro,
2007-04-17,-2.47, -7.40, -9.73, 1.99, 1.61, 7.24, repro,
2007-04-18,-2.59, -6.45, -11.81, 1.98, 1.60, 7.17, repro,
2007-04-19,-0.21, -3.65, -6.46, 1.99, 1.61, 7.24, repro,
2007-04-20,-1.94, -4.38, -10.02, 1.99, 1.60, 7.16, repro,
2007-04-21,-1.59, -5.16, -10.53, 2.00, 1.61, 7.22, repro,
2007-04-22,-1.41, -5.81, -6.97, 2.00, 1.60, 7.19, repro,
2007-04-23,-0.59, -4.54, -9.73, 2.01, 1.62, 7.25, repro,
2007-04-24,-1.85, -4.75, -21.61, 2.02, 1.63, 7.30, repro,
2007-04-25,-1.43, -4.55, -11.62, 2.01, 1.64, 7.27, repro,
2007-04-26,-1.40, -5.65, -13.49, 1.99, 1.60, 7.20, repro,
2007-04-27,-1.47, -5.11, -15.05, 1.99, 1.59, 7.18, repro,
2007-04-28,-0.17, -4.76, -8.02, 2.02, 1.61, 7.31, repro,
2007-04-29,-2.00, -5.11, -14.76, 2.01, 1.61, 7.28, repro,
2007-04-30,-0.61, -5.70, -8.23, 2.08, 1.65, 7.56, repro,
2007-05-01,-0.86, -3.38, -5.41, 2.39, 1.98, 9.36, repro,
2007-05-02,-3.47, -7.93, -27.23, 2.36, 1.91, 9.11, repro,
2007-05-03,0.05, -5.48, -7.37, 2.49, 2.05, 9.84, repro,
2007-05-04,-1.00, -7.40, -11.93, 2.24, 1.76, 8.44, repro,
2007-05-05,0.25, -6.73, -9.04, 2.28, 1.82, 8.49, repro,
2007-05-06,-1.05, -5.77, -18.23, 2.38, 1.96, 9.38, repro,
2007-05-07,-2.12, -4.37, -15.71, 2.29, 1.86, 8.79, repro,
2007-05-08,-1.44, -5.98, -15.59, 2.25, 1.81, 8.55, repro,
2007-05-09,-1.59, -6.03, -14.83, 2.30, 1.82, 8.73, repro,
2007-05-10,-0.41, -4.45, -12.98, 2.15, 1.72, 7.90, repro,
2007-05-11,-1.61, -5.34, -11.72, 2.15, 1.70, 7.74, repro,
2007-05-12,-2.53, -3.82, -14.26, 2.04, 1.62, 7.38, repro,
2007-05-13,-1.61, -4.96, -10.64, 2.15, 1.72, 7.84, repro,
2007-05-14,-2.09, -6.01, -17.13, 2.12, 1.70, 7.71, repro,
2007-05-15,-0.62, -5.60, -13.52, 2.04, 1.63, 7.39, repro,
2007-05-16,0.59, -4.69, -10.66, 2.17, 1.78, 8.20, repro,
2007-05-17,-0.37, -5.91, -7.29, 2.31, 1.88, 8.78, repro,
2007-05-18,2.84, -5.05, 1.26, 2.39, 1.99, 9.25, repro,
2007-05-19,-1.72, -5.66, -12.46, 2.12, 1.72, 7.76, repro,
2007-05-20,-1.55, -4.42, -7.62, 2.57, 2.12, 10.31, repro,
2007-05-21,1.32, -7.26, -11.21, 2.71, 2.34, 11.56, repro,
2007-05-22,0.19, -3.45, -10.40, 2.48, 2.06, 9.86, repro,
2007-05-23,-1.62, -5.11, -14.50, 2.53, 2.10, 10.21, repro,
2007-05-24,-1.05, -5.95, -13.12, 2.61, 2.23, 10.48, repro,
2007-05-25,-1.40, -6.41, -16.83, 2.48, 2.15, 9.95, repro,
2007-05-26,-0.49, -4.56, -17.99, 2.26, 1.82, 8.50, repro,
2007-05-27,-4.52, -7.01, -6.63, 2.41, 1.92, 9.17, repro,
2007-05-28,-2.99, -5.42, -7.93, 2.51, 2.07, 10.00, repro,
2007-05-29,-0.77, -6.64, -12.87, 2.61, 2.11, 10.56, repro,
2007-05-30,-1.00, -4.48, -13.68, 2.90, 2.41, 12.21, repro,
2007-05-31,-2.32, -5.13, -3.30, 3.15, 2.72, 13.20, repro,
2007-06-01,-0.81, -5.54, -13.13, 2.60, 2.13, 10.49, repro,
2007-06-02,0.41, -6.21, -5.22, 3.04, 2.57, 12.91, repro,
2007-06-03,-1.80, -5.01, -11.61, 3.00, 2.48, 12.92, repro,
2007-06-04,2.27, -4.68, -2.52, 4.28, 3.42, 17.05, repro,
2007-06-05,-10.12, -7.80, -16.05, 3.00, 2.67, 13.39, repro,
2007-06-06,-1.12, -8.30, 4.85, 4.32, 3.65, 20.29, repro,
2007-06-07,-3.59, -8.62, -6.37, 4.62, 3.99, 21.96, repro,
2007-06-08,0.97, -0.82, -10.18, 9.33, 6.44, 43.75, repro,
2007-06-10,-1.82, -5.41, -1.88, 5.52, 5.16, 24.43, repro,
2007-06-11,-3.79, -6.37, -22.03, 9.90, 8.42, 47.47, repro,
2007-06-15,-1.59, -3.64, -11.34, 3.51, 2.94, 15.14, repro,
2007-06-16,-8.92, -2.20, 6.98, 11.06, 10.10, 49.38, repro,
2007-06-17,-1.21, -2.50, -7.46, 5.75, 4.01, 19.22, repro,
2007-06-18,-0.62, -1.13, -11.40, 2.00, 1.60, 7.18, repro,
2007-06-19,1.47, -3.41, -11.45, 2.00, 1.59, 7.14, repro,
2007-06-20,-0.49, -1.27, -16.42, 1.97, 1.59, 7.10, repro,
2007-06-21,0.12, -1.65, -13.62, 1.98, 1.59, 7.15, repro,
2007-06-22,-0.10, -2.22, -11.05, 2.01, 1.60, 7.23, repro,
2007-06-23,0.05, -2.67, -17.15, 1.99, 1.59, 7.15, repro,
2007-06-24,-1.60, -1.33, -15.78, 2.08, 1.65, 7.58, repro,
2007-06-25,-0.08, -1.86, -14.41, 1.99, 1.59, 7.15, repro,
2007-06-26,-0.23, -1.27, -20.97, 2.05, 1.61, 7.32, repro,
2007-06-27,0.02, -1.77, -15.74, 2.01, 1.60, 7.26, repro,
2007-06-28,0.09, -1.49, -19.90, 2.00, 1.59, 7.18, repro,
2007-06-29,2.59, 0.40, -10.88, 2.00, 1.59, 7.15, repro,
2007-06-30,0.56, -2.20, -11.03, 1.99, 1.59, 7.17, repro,
2007-07-01,1.34, -2.20, -8.56, 1.99, 1.60, 7.20, repro,
2007-07-02,1.56, -0.34, -12.71, 2.00, 1.60, 7.21, repro,
2007-07-03,-0.07, -1.68, -16.12, 2.00, 1.60, 7.22, repro,
2007-07-04,-0.33, -1.47, -15.66, 1.97, 1.59, 7.15, repro,
2007-07-05,0.62, -2.56, -19.09, 1.99, 1.59, 7.18, repro,
2007-07-06,-1.05, -1.87, -16.37, 1.99, 1.60, 7.21, repro,
2007-07-07,-2.35, -3.64, -10.17, 2.00, 1.60, 7.25, repro,
2007-07-08,-2.36, -2.16, -10.28, 2.01, 1.61, 7.26, repro,
2007-07-09,1.11, -2.22, -17.36, 2.05, 1.61, 7.38, repro,
2007-07-10,0.56, -3.40, -18.47, 1.98, 1.59, 7.11, repro,
2007-07-11,-0.42, -2.59, -18.59, 2.02, 1.61, 7.28, repro,
2007-07-12,0.97, -0.92, -11.78, 2.03, 1.68, 7.41, repro,
2007-07-13,-0.07, -0.35, -13.83, 2.04, 1.68, 7.42, repro,
2007-07-14,0.47, -1.48, -14.36, 2.03, 1.66, 7.31, repro,
2007-07-15,0.99, -2.16, -12.14, 2.01, 1.66, 7.31, repro,
2007-07-16,0.67, -1.44, -14.07, 2.02, 1.66, 7.31, repro,
2007-07-17,-0.37, -2.70, -4.50, 2.01, 1.64, 7.34, repro,
2007-07-18,-0.36, -0.27, -8.39, 2.01, 1.61, 7.27, repro,
2007-07-19,1.20, -1.46, -11.03, 2.00, 1.61, 7.23, repro,
2007-07-20,2.34, -2.59, -5.27, 2.03, 1.67, 7.40, repro,
2007-07-21,0.96, -1.83, -8.73, 2.03, 1.67, 7.39, repro,
2007-07-22,0.35, -2.19, -11.26, 2.09, 1.67, 7.52, repro,
2007-07-23,1.31, -2.08, -9.09, 2.04, 1.67, 7.46, repro,
2007-07-24,-1.32, -2.82, -9.27, 2.06, 1.68, 7.47, repro,
2007-07-25,0.76, -1.37, -12.76, 2.05, 1.69, 7.47, repro,
2007-07-26,0.43, -2.19, -4.27, 2.04, 1.69, 7.49, repro,
2007-07-27,3.07, -3.19, -7.03, 2.04, 1.69, 7.45, repro,
2007-07-28,3.26, -4.25, -8.31, 2.03, 1.67, 7.41, repro,
2007-07-29,-0.01, -2.43, -6.97, 2.04, 1.68, 7.47, repro,
2007-07-30,-1.56, 0.41, -0.18, 2.05, 1.66, 7.55, repro,
2007-07-31,-0.81, -1.04, -14.58, 2.00, 1.63, 7.30, repro,
2007-08-01,1.22, -1.90, -4.68, 1.99, 1.61, 7.16, repro,
2007-08-02,0.34, -0.78, -8.75, 2.12, 1.81, 7.90, repro,
2007-08-03,1.73, -2.14, -11.13, 1.99, 1.60, 7.20, repro,
2007-08-04,0.99, -3.94, -5.83, 1.98, 1.60, 7.16, repro,
2007-08-05,-0.23, 0.70, -11.40, 2.01, 1.61, 7.25, repro,
2007-08-06,5.01, 2.12, 4.32, 2.00, 1.65, 7.35, repro,
2007-08-07,2.03, -1.94, -10.48, 2.03, 1.65, 7.40, repro,
2007-08-08,0.26, -2.41, -6.46, 1.99, 1.61, 7.21, repro,
2007-08-09,1.76, -1.97, -7.92, 1.98, 1.60, 7.17, repro,
2007-08-10,0.06, -0.99, -0.05, 1.98, 1.60, 7.15, repro,
2007-08-11,1.81, -1.32, -4.57, 1.98, 1.60, 7.15, repro,
2007-08-12,0.05, -1.38, -3.32, 1.96, 1.59, 7.07, repro,
2007-08-13,2.52, -0.79, -9.25, 1.98, 1.60, 7.15, repro,
2007-08-14,1.61, -2.01, -8.27, 2.12, 1.72, 7.67, repro,
2007-08-15,1.13, -3.09, -5.13, 2.10, 1.70, 7.54, repro,
2007-08-16,1.57, -1.18, -4.08, 2.09, 1.66, 7.54, repro,
2007-08-17,2.04, -2.26, -5.97, 2.06, 1.64, 7.44, repro,
2007-08-18,-1.58, -1.67, -3.22, 2.09, 1.69, 7.69, repro,
2007-08-19,-0.58, -2.16, -6.54, 2.11, 1.71, 7.84, repro,
2007-08-20,1.33, -1.73, -2.90, 2.08, 1.66, 7.52, repro,
2007-08-21,0.59, -1.68, -9.86, 2.12, 1.67, 7.60, repro,
2007-08-22,2.07, -2.60, -5.00, 2.14, 1.67, 7.63, repro,
2007-08-23,1.04, -2.34, -0.84, 2.03, 1.60, 7.27, repro,
2007-08-24,0.51, -1.99, -7.77, 2.14, 1.70, 7.65, repro,
2007-08-25,2.08, -1.86, -5.65, 2.09, 1.69, 7.56, repro,
2007-08-26,0.22, -2.51, -0.58, 2.12, 1.73, 7.70, repro,
2007-08-27,0.66, -1.97, -10.58, 2.21, 1.76, 8.09, repro,
2007-08-28,1.91, -1.04, -14.87, 2.09, 1.68, 7.56, repro,
2007-08-29,1.51, -2.90, -14.01, 2.08, 1.68, 7.55, repro,
2007-08-30,3.03, -1.64, -15.99, 2.17, 1.73, 7.84, repro,
2007-08-31,2.18, -2.56, -2.37, 2.10, 1.70, 7.64, repro,
2007-09-01,1.26, -3.43, -18.03, 2.11, 1.70, 7.60, repro,
2007-09-02,-1.43, -2.70, -16.20, 2.14, 1.78, 7.80, repro,
2007-09-03,0.11, -4.86, -2.73, 2.09, 1.69, 7.58, repro,
2007-09-04,-3.89, -3.72, -5.47, 2.13, 1.70, 7.70, repro,
2007-09-05,2.70, -3.16, 1.12, 2.08, 1.68, 7.49, repro,
2007-09-06,1.04, -2.69, -4.90, 2.07, 1.69, 7.51, repro,
2007-09-07,0.35, -2.31, -7.32, 2.07, 1.69, 7.51, repro,
2007-09-08,0.56, -1.98, -6.73, 2.22, 1.84, 8.17, repro,
2007-09-09,-0.38, -2.98, -8.92, 2.16, 1.77, 7.92, repro,
2007-09-10,0.57, -3.38, -8.69, 2.08, 1.69, 7.54, repro,
2007-09-11,-1.49, -1.80, -11.44, 2.09, 1.69, 7.49, repro,
2007-09-12,2.28, -3.10, -1.97, 2.13, 1.72, 7.68, repro,
2007-09-13,1.31, -1.36, -3.97, 2.21, 1.70, 7.78, repro,
2007-09-14,4.29, -1.39, -4.03, 2.15, 1.73, 7.80, repro,
2007-09-15,0.31, -2.60, -0.81, 2.18, 1.70, 7.84, repro,
2007-09-16,3.01, -2.20, -8.77, 2.17, 1.69, 7.71, repro,
2007-09-17,0.04, -2.80, -3.57, 2.16, 1.77, 7.87, repro,
2007-09-18,0.50, -4.27, -11.02, 2.10, 1.70, 7.59, repro,
2007-09-19,-1.23, -4.66, 1.79, 2.01, 1.60, 7.24, repro,
2007-09-20,0.84, -4.16, -5.45, 2.04, 1.61, 7.32, repro,
2007-09-21,-1.77, -5.24, -5.45, 2.10, 1.69, 7.66, repro,
2007-09-22,-1.83, -3.62, -1.17, 2.06, 1.62, 7.40, repro,
2007-09-23,-1.15, -3.77, -9.88, 2.12, 1.71, 7.70, repro,
2007-09-24,-0.26, -2.46, -5.30, 2.14, 1.68, 7.68, repro,
2007-09-25,-1.64, -3.33, -7.83, 2.12, 1.70, 7.73, repro,
2007-09-26,1.16, -2.33, -2.30, 2.06, 1.63, 7.42, repro,
2007-09-27,-0.26, -2.66, -6.86, 2.06, 1.65, 7.48, repro,
2007-09-28,-0.04, -0.09, -0.36, 2.10, 1.75, 7.66, repro,
2007-09-29,-1.60, -1.84, 2.78, 2.07, 1.70, 7.60, repro,
2007-09-30,0.35, -2.59, -1.76, 2.09, 1.71, 7.69, repro,
2007-10-01,-3.22, -5.65, -8.70, 2.07, 1.70, 7.63, repro,
2007-10-02,0.08, -2.30, -2.29, 2.12, 1.76, 7.89, repro,
2007-10-03,0.51, -1.97, -0.56, 2.10, 1.76, 7.85, repro,
2007-10-04,-3.93, -2.02, 8.99, 2.08, 1.68, 7.57, repro,
2007-10-05,-4.56, -5.68, -4.67, 2.11, 1.76, 7.91, repro,
2007-10-06,-0.25, -2.21, 0.03, 2.13, 1.72, 7.78, repro,
2007-10-07,-1.17, -2.58, -7.86, 2.13, 1.74, 7.82, repro,
2007-10-08,-0.57, -1.77, -4.47, 2.30, 1.79, 8.43, repro,
2007-10-09,-0.16, -2.89, -2.54, 2.31, 1.93, 8.55, repro,
2007-10-10,-2.81, -2.71, -21.86, 2.31, 1.90, 8.66, repro,
2007-10-11,0.45, -1.95, -4.89, 2.07, 1.72, 7.67, repro,
2007-10-12,0.60, -2.32, 1.10, 2.02, 1.67, 7.53, repro,
2007-10-13,-0.45, -2.20, 2.04, 2.01, 1.64, 7.37, repro,
2007-10-14,-0.00, -2.36, -5.98, 2.02, 1.65, 7.37, repro,
2007-10-15,-1.37, -0.76, 1.27, 2.01, 1.65, 7.40, repro,
2007-10-16,-2.44, -3.97, -0.97, 2.04, 1.69, 7.68, repro,
2007-10-17,-3.10, 0.27, 14.38, 2.06, 1.69, 7.58, repro,
2007-10-18,0.43, -2.70, -1.16, 2.06, 1.71, 7.60, repro,
2007-10-19,0.33, -2.60, 5.44, 2.02, 1.65, 7.43, repro,
2007-10-20,-2.93, -3.06, -13.27, 2.13, 1.71, 7.87, repro,
2007-10-21,0.03, -2.54, -5.03, 2.02, 1.65, 7.42, repro,
2007-10-22,-0.64, -2.63, -6.44, 2.10, 1.76, 7.76, repro,
2007-10-23,-0.35, -1.91, -10.89, 2.06, 1.71, 7.60, repro,
2007-10-24,-0.91, -2.10, -10.63, 2.10, 1.75, 7.76, repro,
2007-10-25,-0.94, -1.50, -5.51, 2.15, 1.68, 7.83, repro,
2007-10-26,-0.24, 0.07, -9.64, 2.05, 1.69, 7.53, repro,
2007-10-27,-0.34, -1.79, -9.36, 2.02, 1.65, 7.43, repro,
2007-10-28,-0.18, -1.62, -8.91, 2.05, 1.69, 7.64, repro,
2007-10-29,-1.62, -0.92, -3.78, 2.02, 1.65, 7.40, repro,
2007-10-30,-1.61, -1.54, -7.35, 2.03, 1.66, 7.49, repro,
2007-10-31,-1.82, -1.91, -14.17, 2.02, 1.65, 7.44, repro,
2007-11-01,-1.54, -2.06, -8.75, 2.02, 1.68, 7.38, repro,
2007-11-02,-0.57, -2.38, -7.07, 2.01, 1.66, 7.44, repro,
2007-11-03,-0.71, -2.12, -10.86, 2.01, 1.66, 7.43, repro,
2007-11-04,-0.04, -2.10, -10.49, 2.00, 1.61, 7.24, repro,
2007-11-05,-1.30, -1.93, -15.85, 2.06, 1.64, 7.43, repro,
2007-11-06,-1.43, -1.87, -15.79, 2.06, 1.72, 7.62, repro,
2007-11-07,-1.14, -2.11, -13.91, 1.99, 1.62, 7.22, repro,
2007-11-08,-1.17, -2.30, -11.65, 2.06, 1.70, 7.65, repro,
2007-11-09,-0.15, -1.93, -5.02, 2.04, 1.66, 7.44, repro,
2007-11-10,-1.06, -2.67, -9.64, 1.99, 1.62, 7.25, repro,
2007-11-11,-2.03, -0.58, -13.09, 1.99, 1.61, 7.26, repro,
2007-11-12,-0.11, -2.28, -7.39, 2.02, 1.64, 7.32, repro,
2007-11-13,-0.14, -3.41, -5.08, 1.98, 1.61, 7.21, repro,
2007-11-14,-0.21, -2.50, -12.56, 2.05, 1.69, 7.62, repro,
2007-11-15,0.26, -2.70, -11.88, 2.01, 1.63, 7.33, repro,
2007-11-16,-1.45, -3.62, -11.22, 2.02, 1.64, 7.37, repro,
2007-11-17,-0.12, -3.28, -20.42, 1.98, 1.60, 7.21, repro,
2007-11-18,0.76, -3.94, -13.47, 1.99, 1.62, 7.26, repro,
2007-11-19,-1.63, -4.09, -7.16, 2.01, 1.63, 7.34, repro,
2007-11-20,-1.04, -3.74, -17.48, 2.09, 1.77, 7.75, repro,
2007-11-21,-0.06, -3.10, -12.58, 2.07, 1.73, 7.59, repro,
2007-11-22,-0.45, -2.80, -19.48, 2.04, 1.69, 7.42, repro,
2007-11-23,1.69, -3.32, -17.83, 2.08, 1.77, 7.59, repro,
2007-11-24,1.72, -2.85, -9.94, 2.08, 1.73, 7.54, repro,
2007-11-25,0.01, -3.03, -9.90, 2.10, 1.78, 7.59, repro,
2007-11-26,0.69, -3.16, -17.28, 2.12, 1.76, 7.80, repro,
2007-11-27,1.44, -3.03, -7.86, 2.07, 1.73, 7.54, repro,
2007-11-28,0.81, -3.11, -17.52, 2.06, 1.72, 7.47, repro,
2007-11-29,0.56, -2.69, -18.22, 2.08, 1.69, 7.62, repro,
2007-11-30,-4.35, -7.27, -17.73, 2.12, 1.77, 7.64, repro,
2007-12-01,0.75, -3.13, -5.84, 2.17, 1.82, 7.94, repro,
2007-12-02,-0.99, -4.10, -14.97, 2.15, 1.82, 7.96, repro,
2007-12-03,1.73, -2.15, -13.35, 2.23, 1.80, 8.23, repro,
2007-12-04,1.69, -2.17, -13.48, 2.16, 1.82, 7.93, repro,
2007-12-05,1.78, -3.41, -12.56, 2.16, 1.81, 8.12, repro,
2007-12-06,-0.05, -0.41, -2.65, 2.30, 1.96, 8.56, repro,
2007-12-07,-2.59, -5.49, -15.22, 2.29, 1.97, 8.53, repro,
2007-12-08,0.22, -3.47, -9.02, 2.15, 1.80, 8.04, repro,
2007-12-09,1.10, -2.98, -13.55, 2.46, 2.26, 9.24, repro,
2007-12-10,1.67, -2.31, -10.72, 2.10, 1.79, 7.67, repro,
2007-12-11,-0.21, -2.97, -11.61, 2.14, 1.76, 7.75, repro,
2007-12-12,0.12, -3.82, -17.22, 2.20, 1.78, 8.02, repro,
2007-12-13,-0.29, -2.84, -14.68, 2.10, 1.71, 7.74, repro,
2007-12-14,-0.04, -2.61, -8.67, 2.07, 1.65, 7.58, repro,
2007-12-15,0.57, -1.57, -7.07, 2.07, 1.69, 7.62, repro,
2007-12-16,-1.02, -3.20, -8.80, 2.06, 1.65, 7.50, repro,
2007-12-17,-3.29, -3.23, -8.38, 2.11, 1.69, 7.57, repro,
2007-12-18,-2.44, -3.12, -8.77, 2.05, 1.65, 7.50, repro,
2007-12-19,-0.43, -4.26, -9.14, 2.15, 1.71, 7.82, repro,
2007-12-20,-2.08, -3.37, -13.33, 2.07, 1.69, 7.57, repro,
2007-12-21,0.70, -2.63, -15.24, 2.10, 1.71, 7.61, repro,
2007-12-22,1.17, -2.74, -18.33, 2.16, 1.75, 7.88, repro,
2007-12-23,-1.19, -2.96, -17.01, 2.14, 1.78, 7.76, repro,
2007-12-24,0.28, -3.10, -9.88, 2.08, 1.67, 7.55, repro,
2007-12-25,1.04, -3.05, -2.52, 2.17, 1.80, 7.85, repro,
2007-12-26,0.11, -1.57, -6.12, 2.06, 1.67, 7.51, repro,
2007-12-27,0.29, -2.75, -5.68, 2.09, 1.71, 7.64, repro,
2007-12-28,-1.49, -2.99, -9.59, 2.11, 1.70, 7.67, repro,
2007-12-29,0.32, -1.73, -6.61, 2.12, 1.71, 7.72, repro,
2007-12-30,-0.62, -3.05, -6.84, 2.12, 1.71, 7.71, repro,
2007-12-31,-0.52, -2.14, -13.76, 2.04, 1.66, 7.45, repro,
2008-01-01,0.07, -2.11, -18.33, 2.03, 1.62, 7.36, repro,
2008-01-02,0.65, -1.41, -16.16, 2.04, 1.61, 7.34, repro,